TimeEDT,TemperatureF,Dew PointF,Humidity,Sea Level PressureIn,VisibilityMPH,Wind Direction,Wind SpeedMPH,Gust SpeedMPH,PrecipitationIn,Events,Conditions,WindDirDegrees,DateUTC
12:14 AM,53.6,52.7,97,30.13,10.0,Calm,Calm,-,N/A,,Clear,0,2013-07-12 04:14:00
12:35 AM,53.1,53.1,100,30.13,10.0,Calm,Calm,-,N/A,,Clear,0,2013-07-12 04:35:00
12:55 AM,48.4,48.4,100,30.13,10.0,Calm,Calm,-,N/A,,Clear,0,2013-07-12 04:55:00
1:14 AM,48.4,48.0,99,30.14,10.0,Calm,Calm,-,N/A,,Clear,0,2013-07-12 05:14:00
1:35 AM,48.4,48.4,100,30.14,10.0,Calm,Calm,-,N/A,,Clear,0,2013-07-12 05:35:00
1:55 AM,48.4,48.4,100,30.14,7.0,Calm,Calm,-,N/A,,Clear,0,2013-07-12 05:55:00
2:14 AM,48.4,48.2,99,30.14,10.0,Calm,Calm,-,N/A,,Clear,0,2013-07-12 06:14:00
2:35 AM,48.4,48.4,100,30.14,10.0,Calm,Calm,-,N/A,,Clear,0,2013-07-12 06:35:00
2:55 AM,48.4,48.4,100,30.14,10.0,Calm,Calm,-,N/A,,Clear,0,2013-07-12 06:55:00
3:14 AM,44.1,44.1,100,30.15,10.0,Calm,Calm,-,N/A,,Clear,0,2013-07-12 07:14:00
3:35 AM,43.9,43.9,100,30.16,2.0,Calm,Calm,-,N/A,,Clear,0,2013-07-12 07:35:00
3:55 AM,45.1,45.1,100,30.16,5.0,Calm,Calm,-,N/A,,Clear,0,2013-07-12 07:55:00
4:14 AM,43.9,43.9,100,30.17,1.8,Calm,Calm,-,N/A,,Mist,0,2013-07-12 08:14:00
4:35 AM,44.4,44.4,100,30.17,0.5,Calm,Calm,-,N/A,Fog,Fog,0,2013-07-12 08:35:00
4:55 AM,43.3,43.3,100,30.17,10.0,Calm,Calm,-,N/A,,Clear,0,2013-07-12 08:55:00
5:15 AM,42.6,42.6,100,30.17,0.8,Calm,Calm,-,N/A,,Mist,0,2013-07-12 09:15:00
5:35 AM,41.2,41.2,100,30.17,10.0,Calm,Calm,-,N/A,,Clear,0,2013-07-12 09:35:00
5:54 AM,41.0,41.0,100,30.18,10.0,Calm,Calm,-,N/A,,Clear,0,2013-07-12 09:54:00
6:15 AM,41.7,41.7,100,30.18,10.0,Calm,Calm,-,N/A,,Scattered Clouds,0,2013-07-12 10:15:00
6:35 AM,42.4,42.4,100,30.19,0.5,Calm,Calm,-,N/A,Fog,Fog,0,2013-07-12 10:35:00
6:54 AM,44.1,44.1,100,30.20,0.2,NNW,3.5,-,N/A,Fog,Fog,330,2013-07-12 10:54:00
7:15 AM,48.4,48.4,100,30.20,0.2,Calm,Calm,-,N/A,Fog,Fog,0,2013-07-12 11:15:00
7:35 AM,48.4,48.4,100,30.20,0.2,Calm,Calm,-,N/A,Fog,Fog,0,2013-07-12 11:35:00
7:54 AM,49.6,49.6,100,30.20,10.0,Calm,Calm,-,N/A,,Scattered Clouds,0,2013-07-12 11:54:00
8:15 AM,53.6,53.6,100,30.20,10.0,Calm,Calm,-,N/A,,Clear,0,2013-07-12 12:15:00
8:35 AM,56.7,54.0,91,30.20,10.0,Calm,Calm,-,N/A,,Clear,0,2013-07-12 12:35:00
8:54 AM,60.6,53.4,77,30.21,10.0,Calm,Calm,-,N/A,,Clear,0,2013-07-12 12:54:00
9:15 AM,64.9,53.8,67,30.20,10.0,ESE,4.6,-,N/A,,Clear,120,2013-07-12 13:15:00
9:35 AM,68.5,54.9,62,30.21,7.0,SE,4.6,-,N/A,,Clear,140,2013-07-12 13:35:00
9:54 AM,68.5,53.8,59,30.21,10.0,South,3.5,-,N/A,,Clear,180,2013-07-12 13:54:00
10:15 AM,68.5,52.7,57,30.21,10.0,Calm,Calm,-,N/A,,Clear,0,2013-07-12 14:15:00
10:34 AM,70.2,52.7,54,30.21,10.0,Calm,Calm,-,N/A,,Clear,0,2013-07-12 14:34:00
10:55 AM,71.6,53.1,52,30.20,10.0,North,3.5,-,N/A,,Clear,10,2013-07-12 14:55:00
11:15 AM,73.4,53.6,50,30.21,10.0,Calm,Calm,-,N/A,,Clear,0,2013-07-12 15:15:00
11:34 AM,73.6,50.5,44,30.20,10.0,SE,3.5,-,N/A,,Clear,140,2013-07-12 15:34:00
11:55 AM,73.8,48.6,41,30.20,10.0,SSE,3.5,-,N/A,,Clear,150,2013-07-12 15:55:00
12:15 PM,74.7,48.0,39,30.20,10.0,Calm,Calm,-,N/A,,Clear,0,2013-07-12 16:15:00
12:34 PM,76.3,47.7,36,30.19,10.0,Calm,Calm,-,N/A,,Clear,0,2013-07-12 16:34:00
12:55 PM,77.5,47.1,34,30.19,10.0,Calm,Calm,-,N/A,,Clear,0,2013-07-12 16:55:00
1:15 PM,78.8,46.2,32,30.19,10.0,ESE,4.6,-,N/A,,Clear,110,2013-07-12 17:15:00
1:34 PM,78.8,44.6,30,30.19,10.0,SSE,6.9,-,N/A,,Clear,160,2013-07-12 17:34:00
1:55 PM,78.8,44.8,30,30.19,10.0,ESE,3.5,-,N/A,,Clear,120,2013-07-12 17:55:00
2:15 PM,79.5,44.4,29,30.18,10.0,ESE,5.8,-,N/A,,Clear,110,2013-07-12 18:15:00
2:34 PM,79.9,44.4,28,30.18,10.0,Calm,Calm,-,N/A,,Clear,0,2013-07-12 18:34:00
2:55 PM,80.2,43.7,27,30.17,10.0,ESE,8.1,-,N/A,,Clear,120,2013-07-12 18:55:00
3:15 PM,80.6,44.6,28,30.16,10.0,East,6.9,-,N/A,,Clear,100,2013-07-12 19:15:00
3:34 PM,81.3,45.7,28,30.16,10.0,Calm,Calm,-,N/A,,Clear,0,2013-07-12 19:34:00
3:55 PM,81.1,45.0,28,30.16,10.0,SSW,3.5,-,N/A,,Clear,210,2013-07-12 19:55:00
4:15 PM,81.3,44.6,27,30.16,10.0,South,5.8,-,N/A,,Clear,190,2013-07-12 20:15:00
4:34 PM,81.5,43.7,26,30.15,10.0,Calm,Calm,-,N/A,,Clear,0,2013-07-12 20:34:00
4:55 PM,81.9,43.9,26,30.16,10.0,SSE,4.6,-,N/A,,Clear,150,2013-07-12 20:55:00
5:14 PM,81.7,41.9,24,30.16,10.0,Calm,Calm,-,N/A,,Clear,0,2013-07-12 21:14:00
5:35 PM,82.4,42.8,25,30.15,10.0,SSW,5.8,-,N/A,,Clear,200,2013-07-12 21:35:00
5:55 PM,81.5,43.3,26,30.15,10.0,Calm,Calm,-,N/A,,Clear,0,2013-07-12 21:55:00
6:14 PM,81.5,44.1,27,30.15,10.0,Calm,Calm,-,N/A,,Clear,0,2013-07-12 22:14:00
6:34 PM,81.3,46.8,30,30.14,10.0,SSW,6.9,-,N/A,,Clear,210,2013-07-12 22:34:00
6:55 PM,81.1,47.7,31,30.14,10.0,SSW,5.8,-,N/A,,Clear,210,2013-07-12 22:55:00
7:14 PM,80.2,46.4,30,30.14,10.0,South,5.8,-,N/A,,Clear,180,2013-07-12 23:14:00
7:35 PM,79.9,48.0,33,30.14,10.0,South,6.9,-,N/A,,Clear,180,2013-07-12 23:35:00
7:55 PM,78.8,48.0,34,30.15,10.0,SSW,5.8,-,N/A,,Clear,200,2013-07-12 23:55:00
8:14 PM,78.8,50.7,37,30.14,10.0,South,4.6,-,N/A,,Clear,180,2013-07-13 00:14:00
8:35 PM,76.1,51.3,42,30.14,10.0,South,4.6,-,N/A,,Clear,170,2013-07-13 00:35:00
8:55 PM,74.3,52.7,47,30.15,10.0,Calm,Calm,-,N/A,,Clear,0,2013-07-13 00:55:00
9:14 PM,70.3,54.5,57,30.15,10.0,SSE,3.5,-,N/A,,Clear,150,2013-07-13 01:14:00
9:35 PM,68.7,55.0,62,30.16,10.0,SE,6.9,-,N/A,,Clear,140,2013-07-13 01:35:00
9:55 PM,68.5,55.4,63,30.16,10.0,SE,6.9,-,N/A,,Clear,140,2013-07-13 01:55:00
10:14 PM,68.5,55.8,64,30.17,10.0,SSE,5.8,-,N/A,,Clear,150,2013-07-13 02:14:00
10:35 PM,68.5,56.3,65,30.17,10.0,SE,4.6,-,N/A,,Clear,130,2013-07-13 02:35:00
10:55 PM,63.5,54.0,71,30.18,10.0,Calm,Calm,-,N/A,,Clear,0,2013-07-13 02:55:00
11:14 PM,61.0,54.7,80,30.18,10.0,Calm,Calm,-,N/A,,Clear,0,2013-07-13 03:14:00
11:35 PM,60.4,55.8,85,30.17,10.0,Calm,Calm,-,N/A,,Clear,0,2013-07-13 03:35:00
11:55 PM,58.5,55.6,90,30.18,10.0,Calm,Calm,-,N/A,,Clear,0,2013-07-13 03:55:00